[[{"header":{"parameterUnit":"m.s-1","parameterCategory":1,"la1":30.2991,"la2":30.254,"lo1":-89.0895,"lo2":-89.0444,"dy":0.0017,"dx":0.0017,"nx":28,"ny":28,"refTime":"2025-06-11T03:00:00:Z","depth":0,"parameterNumber":2,"parameterNumberName":"U-component_of_WINDS"},"data":[0,0,0,0,0,0,0,0,0,0,0,0,0,0,0,0,0,0,0,0,0,0,0,0,0,0,0,0,0,0,0,0,0,0,0,0,0,0,0,0,0,0,0,0,0,0,0,0,0,0,0,0,0,0,0,0,0,0,0.5559,0.556,0,0.5647,0.5648,0.5649,0.5683,0.5683,0.5682,0.5682,0.5771,0.5773,0.5776,0,0,0,0,0,0,0,0,0,0,0,0,0,0.5419,0.5421,0.5559,0.556,0.5561,0.5647,0.5648,0.5649,0.5683,0.5683,0.5682,0.5682,0.577,0.5773,0.5776,0,0,0,0,0,0,0,0,0,0,0,0,0,0.549,0.5422,0.5558,0.5588,0.5592,0.5646,0.5648,0.5649,0.5683,0.5683,0.5682,0.5682,0.5769,0.5773,0.5777,0.5808,0,0,0.5789,0.579,0,0,0,0,0,0,0,0,0.5486,0.5496,0.5583,0.5586,0.559,0.5653,0.5631,0.5702,0.5683,0.5648,0.5682,0.5682,0.5732,0.5739,0.5756,0.5812,0.5816,0.5789,0.5791,0.5793,0.5794,0,0,0,0,0,0,0,0.5481,0.5492,0.5593,0.5584,0.5589,0.5597,0.5606,0.5645,0.5691,0.5651,0.5654,0.5664,0.5734,0.5752,0.5759,0.5817,0.5789,0.5792,0.5795,0.5796,0.5903,0.5904,0,0,0,0,0,0,0.5472,0.5488,0.5591,0.5596,0.5536,0.56,0.561,0.5633,0.5691,0.5699,0.5664,0.5665,0.5746,0.5754,0.5762,0.5802,0.5793,0.5796,0.5799,0.5903,0.5903,0.5904,0,0,0,0,0,0,0.5468,0.5481,0.5587,0.5543,0.5557,0.5602,0.5628,0.5635,0.5654,0.5701,0.5709,0.5674,0.5746,0.5756,0.5796,0.5806,0.5798,0.5802,0.5902,0.5903,0.5903,0.5883,0,0,0,0,0,0,0.5464,0.5479,0.5492,0.5543,0.5559,0.562,0.5629,0.5637,0.5661,0.5663,0.5712,0.572,0.5746,0.579,0.58,0.5811,0.5805,0.5901,0.5902,0.5903,0.5883,0.5883,0.5883,0,0,0,0,0,0.5459,0.5482,0.5492,0.5504,0.5576,0.5621,0.563,0.566,0.5661,0.5674,0.5704,0.5719,0.5803,0.5794,0.5805,0.5817,0.5901,0.5902,0.5903,0.5883,0.5883,0.5883,0,0,0,0,0,0,0.543,0.5489,0.5501,0.5541,0.5576,0.5626,0.5643,0.5659,0.5694,0.5694,0.573,0.5741,0.5778,0.5802,0.5791,0.5851,0.5853,0.5856,0.5834,0.5834,0.5834,0.5827,0.5808,0,0,0,0,0,0.5429,0.5461,0.551,0.5541,0.5558,0.5597,0.5618,0.5639,0.5676,0.569,0.5723,0.5758,0.5793,0.5815,0.5849,0.5887,0.5898,0.5901,0.59,0.59,0.5903,0.5924,0.5926,0.5908,0.5908,0.5908,0,0,0.5425,0.5462,0.548,0.5536,0.5565,0.5597,0.561,0.5643,0.5667,0.5695,0.5735,0.576,0.5802,0.5841,0.586,0.5862,0.591,0.5902,0.5901,0.5904,0.5926,0.5927,0.5929,0.5908,0.5908,0.5908,0,0,0.5436,0.5467,0.5495,0.5525,0.5569,0.5595,0.5602,0.5651,0.5669,0.571,0.5732,0.5761,0.5819,0.5848,0.587,0.5892,0.5907,0.5902,0.5902,0.5923,0.5924,0.5925,0.5933,0.5935,0.5905,0.5905,0.5905,0,0.5426,0.5476,0.5508,0.5541,0.5565,0.5592,0.5622,0.5648,0.5701,0.5717,0.5719,0.5794,0.5824,0.587,0.5875,0.5892,0.5901,0.5897,0.5921,0.5923,0.5925,0.5933,0.5935,0.5904,0.5904,0.5904,0.5904,0,0.5461,0.5495,0.5513,0.5564,0.5591,0.5621,0.5658,0.568,0.5699,0.5725,0.5766,0.5803,0.5845,0.5858,0.5875,0.5906,0.5906,0.5914,0.5917,0.5925,0.5933,0.5936,0.5903,0.5903,0.5903,0.5903,0,0,0.5455,0.5524,0.553,0.5554,0.5605,0.5632,0.5664,0.5706,0.5724,0.576,0.5787,0.5837,0.5845,0.587,0.5891,0.591,0.5924,0.5916,0.5917,0.5916,0.5961,0.5954,0.5957,0.5935,0.5936,0.5936,0.5957,0,0.5472,0.5531,0.5561,0.5607,0.5639,0.5666,0.5693,0.5728,0.5753,0.5783,0.5811,0.5846,0.5854,0.5869,0.5888,0.5918,0.5934,0.5918,0.596,0.5961,0.5949,0.5961,0.5954,0.5972,0.596,0.5961,0.5961,0,0.55,0.5536,0.5585,0.5632,0.5647,0.5671,0.5712,0.5741,0.5781,0.5798,0.5826,0.5847,0.5882,0.5883,0.593,0.5919,0.5938,0.5955,0.5957,0.5962,0.5961,0.5966,0.5979,0.5981,0.5966,0.5966,0.5966,0,0.5491,0.5551,0.5588,0.5608,0.5664,0.5681,0.5705,0.5744,0.5767,0.5803,0.5819,0.5858,0.5879,0.5909,0.594,0.5938,0.5985,0.5988,0.6,0.5999,0.6008,0.6007,0.6024,0.6021,0.6021,0.6021,0.6021,0,0.5506,0.5535,0.5585,0.5607,0.564,0.5675,0.5707,0.5733,0.5767,0.5796,0.5821,0.5847,0.5887,0.5918,0.5942,0.5978,0.5988,0.6002,0.6008,0.6,0.5998,0.6013,0.6012,0.6022,0.6022,0.6021,0.6021,0,0.5501,0.5536,0.5578,0.5628,0.5642,0.5663,0.5707,0.5729,0.5756,0.5792,0.5802,0.5844,0.5882,0.5916,0.5966,0.5982,0.6019,0.6026,0.6005,0.6008,0.6018,0.6017,0.6045,0.605,0.6044,0.6044,0.6044,0,0.5509,0.5531,0.5584,0.5605,0.5629,0.5662,0.5687,0.5722,0.5746,0.5792,0.581,0.5849,0.5883,0.5941,0.5976,0.6015,0.6023,0.6031,0.6029,0.602,0.6023,0.6021,0.6024,0.603,0.603,0.603,0.603,0,0.5518,0.5534,0.5568,0.5608,0.5637,0.567,0.5704,0.5719,0.576,0.5786,0.5825,0.5851,0.5902,0.5941,0.5983,0.6008,0.6026,0.603,0.6035,0.6026,0.6013,0.602,0.6004,0.6029,0.6029,0.6029,0.6029,0.6029,0.552,0.5541,0.5582,0.5619,0.5648,0.5679,0.5703,0.5734,0.5767,0.5811,0.583,0.5869,0.5908,0.5967,0.5992,0.6023,0.6027,0.6034,0.6035,0.6036,0.6035,0.6008,0.6031,0.6031,0.6031,0.6031,0.6031,0,0.553,0.5558,0.5592,0.5639,0.5668,0.5682,0.5721,0.5744,0.5778,0.5814,0.5846,0.5891,0.5929,0.5967,0.6007,0.6025,0.6034,0.6034,0.6033,0.6038,0.6029,0.6021,0.6026,0.6026,0.6026,0.6026,0.6026,0.6026,0.5539,0.5577,0.5598,0.565,0.5677,0.5716,0.5737,0.5766,0.5794,0.5843,0.5875,0.5899,0.5936,0.5979,0.6014,0.6024,0.6038,0.6036,0.6048,0.6039,0.6039,0.6039,0.6031,0.6038,0.6038,0.6055,0.6055,0.6055]},{"header":{"parameterUnit":"m.s-1","parameterCategory":1,"la1":30.2991,"la2":30.254,"lo1":-89.0895,"lo2":-89.0444,"dy":0.0017,"dx":0.0017,"nx":28,"ny":28,"refTime":"2025-06-11T03:00:00:Z","depth":0,"parameterNumber":3,"parameterNumberName":"V-component_of_WINDS"},"data":[0,0,0,0,0,0,0,0,0,0,0,0,0,0,0,0,0,0,0,0,0,0,0,0,0,0,0,0,0,0,0,0,0,0,0,0,0,0,0,0,0,0,0,0,0,0,0,0,0,0,0,0,0,0,0,0,0,0,3.0932,3.0932,0,3.0936,3.0936,3.0936,3.0876,3.0875,3.0873,3.0871,3.0874,3.0876,3.0877,0,0,0,0,0,0,0,0,0,0,0,0,0,3.0873,3.0874,3.0932,3.0932,3.0933,3.0936,3.0936,3.0936,3.0877,3.0875,3.0873,3.0871,3.0873,3.0875,3.0877,0,0,0,0,0,0,0,0,0,0,0,0,0,3.089,3.0875,3.0932,3.0903,3.0901,3.0936,3.0936,3.0936,3.0877,3.0874,3.0872,3.087,3.0873,3.0875,3.0877,3.0941,0,0,3.0885,3.0886,0,0,0,0,0,0,0,0,3.0889,3.0892,3.0907,3.0905,3.0902,3.0903,3.0916,3.0938,3.0878,3.0886,3.0871,3.0869,3.0886,3.0887,3.0893,3.0941,3.0941,3.0885,3.0886,3.0887,3.0888,0,0,0,0,0,0,0,3.0888,3.0891,3.0934,3.0908,3.0905,3.089,3.0889,3.092,3.0899,3.0885,3.0881,3.0882,3.0884,3.0891,3.0892,3.0941,3.0885,3.0887,3.0888,3.0889,3.104,3.1042,0,0,0,0,0,0,3.0891,3.0891,3.0934,3.0934,3.089,3.0893,3.0892,3.0905,3.0899,3.0895,3.0884,3.0879,3.0888,3.089,3.0892,3.0964,3.0887,3.089,3.0891,3.1037,3.104,3.1043,0,0,0,0,0,0,3.089,3.0895,3.0933,3.0911,3.0915,3.0896,3.0911,3.0907,3.0913,3.0898,3.0894,3.0895,3.0886,3.0889,3.0929,3.0964,3.0891,3.0893,3.1034,3.1038,3.1042,3.111,0,0,0,0,0,0,3.0888,3.0895,3.0919,3.0912,3.0916,3.0971,3.0914,3.0909,3.0918,3.0911,3.0907,3.0904,3.0884,3.0926,3.0931,3.0966,3.0895,3.1031,3.1036,3.1041,3.1105,3.1116,3.1126,0,0,0,0,0,3.0886,3.0938,3.0921,3.0926,3.0946,3.0973,3.0975,3.0951,3.0921,3.0945,3.0935,3.0904,3.096,3.093,3.0936,3.0972,3.1029,3.1035,3.104,3.11,3.1114,3.1126,0,0,0,0,0,0,3.0949,3.0937,3.0917,3.0968,3.0972,3.0963,3.0992,3.0967,3.0979,3.0973,3.0943,3.0942,3.0987,3.0983,3.0951,3.1032,3.0989,3.0996,3.1032,3.1045,3.1055,3.1055,3.0897,0,0,0,0,0,3.0969,3.0992,3.098,3.1027,3.1029,3.1011,3.1021,3.1003,3.1005,3.1006,3.0999,3.1003,3.1021,3.1033,3.1049,3.1105,3.1102,3.1132,3.1143,3.1151,3.1157,3.1186,3.1199,3.1062,3.1062,3.1062,0,0,3.101,3.1006,3.1023,3.1039,3.104,3.1064,3.1012,3.104,3.1057,3.101,3.1047,3.1043,3.1044,3.1092,3.1113,3.1091,3.1195,3.1159,3.1166,3.1167,3.1193,3.1206,3.1218,3.1066,3.1065,3.1065,0,0,3.1097,3.1097,3.1135,3.1137,3.1139,3.1126,3.1136,3.113,3.1125,3.1162,3.1127,3.1148,3.118,3.1182,3.1187,3.1276,3.1248,3.1282,3.1336,3.1364,3.1374,3.1384,3.1414,3.1426,3.1288,3.1288,3.1289,0,3.1148,3.1183,3.1158,3.1188,3.1196,3.1156,3.1193,3.1197,3.1204,3.121,3.1185,3.1224,3.1222,3.127,3.1291,3.1298,3.1307,3.1281,3.1375,3.1384,3.1393,3.1421,3.1433,3.1292,3.1292,3.1292,3.1291,0,3.1244,3.1269,3.13,3.1308,3.1319,3.1353,3.1333,3.1348,3.1329,3.1319,3.1356,3.1353,3.1367,3.1378,3.1359,3.1423,3.1409,3.138,3.1336,3.141,3.1436,3.1447,3.1298,3.1297,3.1296,3.1295,0,0,3.1369,3.1363,3.1375,3.1378,3.1377,3.1396,3.1428,3.1442,3.1455,3.1461,3.1487,3.1515,3.1489,3.1495,3.1477,3.1502,3.1571,3.147,3.1469,3.1487,3.1639,3.1659,3.1672,3.1553,3.1555,3.1557,3.1638,0,3.1452,3.1507,3.1485,3.1541,3.1563,3.1526,3.1554,3.1557,3.1548,3.1565,3.1556,3.1576,3.154,3.1544,3.1567,3.1557,3.16,3.1551,3.1575,3.1576,3.1574,3.1686,3.1708,3.1785,3.1649,3.165,3.1652,0,3.1556,3.1567,3.1625,3.1621,3.1629,3.1654,3.1665,3.1683,3.1685,3.1677,3.1685,3.1661,3.1692,3.1649,3.169,3.1657,3.1666,3.1663,3.1665,3.1665,3.1617,3.1688,3.1809,3.1821,3.1668,3.1666,3.1665,0,3.164,3.1669,3.1707,3.1711,3.1707,3.1726,3.1725,3.1725,3.1734,3.1744,3.175,3.1764,3.1771,3.1782,3.1762,3.1733,3.1806,3.1762,3.1799,3.18,3.1815,3.1814,3.1938,3.1824,3.1823,3.1823,3.1823,0,3.1734,3.177,3.1745,3.1768,3.1808,3.1784,3.1824,3.1819,3.1819,3.184,3.181,3.183,3.1804,3.1822,3.1807,3.1843,3.1847,3.1841,3.1836,3.1843,3.1843,3.1847,3.184,3.1826,3.1826,3.1825,3.1824,0,3.1833,3.1817,3.1856,3.185,3.1849,3.1878,3.1872,3.1893,3.1883,3.1911,3.1916,3.19,3.192,3.1902,3.1921,3.1911,3.1959,3.1947,3.1958,3.1954,3.1992,3.1988,3.2122,3.2138,3.2014,3.2015,3.2017,0,3.1893,3.192,3.1917,3.1929,3.193,3.195,3.196,3.1938,3.1949,3.1954,3.1975,3.1992,3.2004,3.2038,3.2028,3.2042,3.2029,3.2075,3.2031,3.2037,3.2028,3.2027,3.2029,3.2084,3.2085,3.2086,3.2087,0,3.2001,3.1992,3.2008,3.2021,3.2034,3.2043,3.205,3.2062,3.2039,3.2053,3.2073,3.2083,3.2103,3.212,3.2131,3.213,3.2105,3.2102,3.2111,3.2117,3.2122,3.2118,3.1981,3.2098,3.2097,3.2096,3.2096,3.2095,3.2081,3.2104,3.2105,3.2123,3.2126,3.2133,3.2152,3.2145,3.2162,3.2176,3.2162,3.2186,3.2187,3.22,3.2201,3.222,3.2201,3.2214,3.2217,3.2221,3.2226,3.212,3.2222,3.2222,3.2221,3.2221,3.2221,0,3.2186,3.2185,3.2203,3.2213,3.2228,3.2204,3.221,3.2224,3.2246,3.2249,3.2263,3.2286,3.2302,3.2294,3.2308,3.2325,3.2314,3.2329,3.2327,3.2327,3.2243,3.2233,3.2338,3.2338,3.2338,3.2338,3.2338,3.2338,3.2243,3.2279,3.227,3.2308,3.2306,3.233,3.2336,3.2342,3.2345,3.2372,3.2386,3.238,3.2379,3.2393,3.2407,3.2405,3.2411,3.243,3.2423,3.2345,3.2333,3.2322,3.2312,3.2432,3.2432,3.2506,3.2506,3.2507]}]]